ATLAS 5 CENTAUR DEB, 44643

Orbit data source: Space-Track

ATLAS 5 CENTAUR DEB, 44643 is space debris in HEO originally from a launch on Wed, 17 Oct 2018 UTC launched from the Air Force Eastern Test Range (AFETR). Debris objects in space refer to the collection of defunct objects orbiting the Earth. Examples of debris include non-operational satellites, rocket bodies, and fragments generated from explosions, collisions, or faulty payload assembly.

Loading next visibility...
Identifier
44643, 2018-079D
Orbit
HEO
Country
Flag of USUS
Related business
Flag of USUnited Launch Alliance/Lockheed Martin (US)
Manufacturer
ULA Decatur
Mission
Spacecraft
Bus & Motor
Unknown
Mass
Unknown
Launch date (UTC)
2018-10-17 (7 years ago)
Launch vehicle
Unknown
Launch site
Air Force Eastern Test Range (AFETR)
Object type
Payload
Rocket body
Debris
Shape & HBR
Unknown shape, 1.1 m
Radar Cross Section
RCS unknown

Expand to show TLE details & history
Last TLE update: 2 days ago

TLE from 2 days ago
0 ATLAS 5 CENTAUR DEB
1 44643U 18079D   25347.90547672 -.00000078  00000-0  00000-0 0  9993
2 44643  13.7475  39.5925 4761680 298.2171  21.9811  1.81990191 43878
Epoch: 2025-12-13T21:43Z
TLE epoch observation values (Epoch: 2025-12-13T21:43:53.188Z)
Latitude
0.00014°
Longitude
-9.25042°
Altitude
11,536.82 km
Speed
5.517 km/s
True Right ascension
02h 38m 11s
True Declination
0° 00' 01"
Sunlit
Object was in daylight at epoch
Visualization orbit readout
Latitude
Unknown
Longitude
Unknown
Altitude
Unknown
Speed
Unknown
Apparent Right ascension
Unknown
Apparent Declination
Unknown
Sunlit
N/A
Visualization observer readout
Local Sidereal Time
03:10:45
Azimuth
Unknown
Elevation
Unknown
Doppler factor
Unknown
Orbital elements
Apogee altitude
35,456.689 km
Perigee altitude
8,467.342 km
Semi-major axis
28,340.152 km
Eccentricity
0.47617
Inclination
13.7475°
RAAN
39.5925°
Arg. of periapsis
298.2171°
True anomaly
61.79214°
Mean anomaly
21.9811°
Eccentric anomaly
39.23864°
Mean motion
0.45493 °/min
Orbital period
791.34 mins
BSTAR
0
Loading maneuver chart data...
Computing Atmospheric mass density...

Documentation

Showing up to 5 results
|